Regional Weather Roundup
Issued by NWS Wakefield, VA

Home | Current Version | Previous Version | Graphics & Text | Print | Product List | Glossary On
Versions: 1 2 3 4 5 6 7 8 9 10 11 12 13 14 15 16 17 18 19 20 21 22 23 24 25 26 27 28 29 30 31 32 33 34 35 36 37 38 39 40 41 42 43 44 45 46 47 48 49 50
000
ASUS41 KAKQ 171810
RWRAKQ

REGIONAL WEATHER ROUNDUP
NATIONAL WEATHER SERVICE WAKEFIELD VA
100 PM EST WED DEC 17 2014

Note: "fair" indicates few or no clouds below 12,000 feet with no
significant weather and/or obstructions to visibility. * = Denotes
station may not report precipitation (e.g., rain,snow,etc.),
thunder or fog.

VAZ042-051-052>054-056-171900-
NORTHERN VIRGINIA

CITY           SKY/WX    TMP DP  RH WIND       PRES   REMARKS
WASH NATIONAL  MOSUNNY   58  32  37 NW13G18   29.98F
DULLES         PTSUNNY   50  32  50 NW16G22   29.98F
FORT BELVOIR   PTSUNNY   54  35  48 NW10      29.99S
QUANTICO       MOSUNNY   55  39  54 NW9       29.99F
FREDERICKSBRG* MOSUNNY   56  38  49 W9        29.97F
STAFFORD*      CLOUDY    56  33  41 SW12G17   30.02S
WARRENTON      MOSUNNY   58  42  53 W7        29.97F
CULPEPER*      MOSUNNY   54  36  50 SW3       29.98F
MANASSAS*      PTSUNNY   54  39  58 N8        29.99F
LEESBURG*      PTSUNNY   52  34  50 MISG      29.99S
WINCHESTER     MOSUNNY   50  27  40 NW20G25   29.99S
FRONT ROYAL*   PTCLDY    50  30  46 W10G18    29.97F
LURAY*         PTCLDY    52  32  46 W10G17    29.98F
$$

VAZ048-049-060>072-079>083-171900-
CENTRAL AND SOUTH CENTRAL VIRGINIA

CITY           SKY/WX    TMP DP  RH WIND       PRES   REMARKS
RICHMOND       PTSUNNY   59  37  44 W10       29.99F
CHESTERFIELD*  CLEAR     57  34  41 W10       30.01F
PETERSBURG*    MOSUNNY   60  36  41 SW14      30.01F
HANOVER        SUNNY     57  37  47 W8        30.00F
TAPPAHANNOCK*  SUNNY     58  32  37 W12G18    29.99R
QUINTON*       PTCLDY    57  38  50 W13G25    29.99F
CHARLOTTSVILLE PTSUNNY   55  31  39 SW8       29.98F
GORDONSVILLE*  PTCLDY    55  35  45 W6        29.98F
ORANGE*        SUNNY     57  34  41 SW9       29.99F
LOUISA*        MOSUNNY   57  37  47 SW6G16    29.98F
BUMPASS*       MOCLDY    53  35  49 W8        29.99F
FARMVILLE*     MOSUNNY   60  37  41 SW8       30.00F
CREWE*         PTCLDY    54  35  48 W10       30.02F
FORT PICKETT*  CLEAR     56  37  48 W10       30.01F
CHASE CITY*    MOCLDY    56  40  53 W7        30.04F
CLARKSVILLE*   CLEAR     55  36  47 NW6G17    30.04F
SOUTH HILL*    SUNNY     55  37  51 NW5       30.08F
LAWRENCEVILLE* PTCLDY    56  40  55 W7        30.02F
EMPORIA*       SUNNY     55  39  54 W12       30.04F
$$

VAZ088>098-171900-
SOUTHEAST VIRGINIA

CITY           SKY/WX    TMP DP  RH WIND       PRES   REMARKS
NORFOLK        SUNNY     57  40  52 W10       29.99F
VIRGINIA BEACH MOSUNNY   59  41  51 W14       29.98F
NORFOLK NAVAL  MOSUNNY   60  42  51 W12       30.00F
WEST POINT*    SUNNY     60  37  41 W9        29.99F
SALUDA*        FAIR      55  40  56 NW6       29.98S
NEWPORT NEWS   SUNNY     62  40  44 W10       29.99F
LANGLEY AFB    SUNNY     58  42  54 W8        29.99F
FORT EUSTIS    SUNNY     58  42  56 NW6       29.98F
WILLIAMSBURG*  SUNNY     61  41  48 W14G22    30.00S
HR EXEC AP*    CLEAR     57  43  58 NW9       30.02F
FRANKLIN*      SUNNY     59  39  47 W8        30.01F
WAKEFIELD      SUNNY     59  39  47 W9        30.00F
$$

VAZ020-022-025-037-045-171900-
WEST CENTRAL AND SOUTHWEST VIRGINIA

CITY           SKY/WX    TMP DP  RH WIND       PRES   REMARKS
STAUNTON*      SUNNY     52  27  38 W9G16     30.00F
WAYNESBORO*    CLEAR     49  29  45 SW10G16   29.99F
HOT SPRINGS VA SUNNY     35  23  61 W20G29    29.95F WCI  24
LYNCHBURG      SUNNY     52  30  43 W10G25    30.03F
DANVILLE       SUNNY     56  33  42 W12       30.05F
SOUTH BOSTON*  CLEAR     56  33  41 W8G16     30.04F
MARTINSVILLE   SUNNY     58  32  37 NW5       30.07F
ROANOKE        MOSUNNY   51  29  42 W16G23    30.07F
BLACKSBURG     SUNNY     43  29  57 NW16G23   30.09F
DUBLIN*        SUNNY     47  32  56 W12G18    30.08F
MARION*        PTSUNNY   44  31  60 W17G23    30.10F
HILLSVILLE*    SUNNY     43  31  62 NW14G23   30.06F
RICHLANDS*     CLOUDY    40  31  70 NW6G16    30.11F
WISE*          PTSUNNY   41  32  70 W3        30.14F
ABINGDON*      CLOUDY    45  34  65 W9        30.13F
$$

MDZ021>025-VAZ099-100-171900-
SOUTHERN MARYLAND AND THE DELMARVA PENINSULA

CITY           SKY/WX    TMP DP  RH WIND       PRES   REMARKS
PATUXENT RIVER MOSUNNY   54  40  59 W12       29.96F
BAY BRIDGE APT   N/A     50  36  57 W9G17     29.96S
LEONARDTOWN    SUNNY     54  37  54 W10G16    29.98F
DOVER          PTSUNNY   53  39  60 W18G26    29.89F
GEORGETOWN     MOSUNNY   55  37  50 W13G23    29.93F
EASTON         SUNNY     54  41  62 NW10G18   29.99F
CAMBRIDGE      PTSUNNY   54  39  58 W9G18     29.95F
SALISBURY      SUNNY     57  39  51 W14G22    29.93F
OCEAN CITY     SUNNY     55  38  52 NW14G23   29.92F
WALLOPS ISLAND SUNNY     52  43  71 W9        29.96F
ACCOMACK*      SUNNY     52  39  62 W10       29.97F
$$

NCZ012>017-030>032-171900-
NORTH CENTRAL AND EASTERN NORTH CAROLINA

CITY           SKY/WX    TMP DP  RH WIND       PRES   REMARKS
ROANOKE RAPIDS CLEAR     55  37  50 NW7       30.03F
RALEIGH        MOSUNNY   58  37  45 W7        30.06F
ELIZABETH CITY SUNNY     61  43  51 W10       30.01F
AHOSKIE*       SUNNY     57  40  53 NW3       30.02F
EDENTON*       SUNNY     59  43  56 NW6       30.02F
CURRITUCK*     SUNNY     58  40  52 W10       30.00F
KILL DEVIL HLS HAZE      53  44  71 W5        30.00F VSB 3/4
MANTEO         SUNNY     54  42  65 W6        30.01F
CAPE HATTERAS  SUNNY     53  44  71 NW7       30.02F
TARBORO*       CLEAR     59  40  48 W10       30.05F
GOLDSBORO      SUNNY     59  45  58 NW9       30.03F
WASHINGTON     SUNNY     58  40  50 NW7       30.03F
GREENVILLE     SUNNY     59  39  47 N8        30.05F
NEW BERN       SUNNY     61  41  47 NW7       30.05F
WILMINGTON     SUNNY     61  40  45 VRB6      30.06F
$$

VAZ048-171900-
ELSEWHERE

CITY           SKY/WX    TMP DP  RH WIND       PRES   REMARKS
HARRISBURG PA  CLOUDY    46  32  58 W17       29.93S
BALTIMORE      PTSUNNY   51  34  52 W18G29    29.95S
ANNAPOLIS      CLOUDY    52  33  48 W15G23    29.95F
ANDREWS AFB    SUNNY     53  33  47 NW15      29.96F
PHILADELPHIA   CLOUDY    52  38  58 W13       29.89F
HENDERSON NC   SUNNY     56  34  43 NW7       30.04F
GREENSBORO     MOSUNNY   56  33  42 NW9       30.05F
ROCKY MOUNT    SUNNY     59  38  45 W12       30.05F
$$

VAZ100-171900-
MARINE

STATION/POSITION TIME  TEMP    WIND        PRES    WAVE   SWELL
                       AIR SEA DIR/SP/G            HT/PER HT/PER
                 (UTC) (F)     (DEG/KT/KT) (MB)    (FT/S) (FT/S)
CAPE MAY NJ      1800   48 45  290/ 13/ 16 1012.4S
LEWES DE         1800   51 44  290/ 19/ 24 1012.7F
15NM E FENWICK I 1800   50 48              1012.5F   2/ 7
OCEAN-CITY-INLET 1800   53 45  310/ 13/ 18 1012.8F
WACHAPREAGUE VA  1800   54 45  280/  4/ 12 1014.7F
THOMAS POINT MD  1800   51 43  300/ 21/ 24 1015.1F
GOOSES REEF MD   1800   50     VRB  8/ 10  1013.6F
COVE POINT MD    1800   52     340/  4/  7 1014.5F
SOLOMONS ISLAND  1800      44                N/A
BISHOPS HEAD MD  1800   43 44  290/  6/  8 1014.1F
PINEY POINT MD   1800          350/  9/  9   N/A
POTOMAC MD       1800   45     310/  2/  2 1014.0F
CAMBRIDGE MD     1800   51 42  240/  7/ 11 1014.2F
LEWISETTA VA     1800   53 44  310/  9/ 11 1014.4F
RAPPAHANNOCK LGT 1800          200/  5/  5 1015.7S
STINGRAY PT      1800   46     150/  4/  6 1015.8S
YORK RVR RNG VA  1800   49     220/  6/  8 1014.7F
YORKTOWN VA      1800   56 46  260/  7/ 10 1014.9F
JAMESTOWN VA     1800   51     320/  8/ 10   N/A
DOMINION TERM VA 1800   48     240/  1/  2 1015.8F
KIPTOPEKE VA     1800      51  190/  4/  5   N/A
CHES BAY BRIDGE  1800   51 46  250/ 11/ 12 1015.0F
CAPE HENRY VA    1800   54     270/  9/ 12 1014.2F
CHESAPEAKE LGHT  1700   51     260/  6/  7 1016.7F
WILLOUBY STN VA  1800   50     240/  9/  9 1015.9F
S CRANEY ISL VA  1800          290/  9/ 12 1015.4F
CAPE HENRY BUOY  1800      49                N/A     2/ 7
1ST LANDING BUOY 1800   50     270/ 10/ 12 1015.3S
CAPE CHARLES BUO 1800      48                N/A     2/ 8   2/ 8
64NM E OF VA BCH 1800   50 54  280/ 10/ 12 1015.1F   4/ 7   3/ 7
DUCK PIER NC     1800   52 49  230/  7/  9 1015.3F
44100 DUCK FRF   1800      52                N/A     2/10
44056 DUCK FRF   1800      49                N/A     2/10
OREGON INLET NC  1800   54 50  300/  6/  8 1016.2F
HATTERAS NC      1800   51 53  320/  6/  7 1017.0F
DIAMOND SHLS NC  1800   53                 1017.0F   3/ 7
CAPE LOOKOUT NC  1700   56     330/  6/  7 1017.7F
$$


USA.gov is the U.S. government's official web portal to all federal, state and local government web resources and services.